{"data":{"norad_id":59682,"epoch":"2026-05-24T22:53:30.511968Z","epoch_age_seconds":75465,"freshness":"FRESH","line1":"1 59682U 24086A   26144.95382537 -.00000615  00000+0 -12822-4 0  9991","line2":"2 59682  43.0050 352.8043 0001071 271.4735  88.5994 15.27579326115723","mean_motion":15.27579326,"eccentricity":0.0001071,"inclination_deg":43.005,"raan_deg":352.8043,"arg_perigee_deg":271.4735,"mean_anomaly_deg":88.5994,"bstar":-1.2822e-5,"rev_number":11572,"period_min":94.266790306116,"perigee_km":482.31628099183,"apogee_km":483.7859474859,"semimajor_km":6861.1881142389,"source":"CELESTRAK","updated_at":"2026-05-25T13:38:19.022773Z"}}